Overview Statistics Trail Chart Weather Telemetry Raw packets
 

This is the latest recevied weather packets stored in our database for station/object ALANSN-2. If no packets are shown the sender has not sent any weather packets the latest 10 day(s).

<< 97 98 99 100 101 102 103 >>
Time Temp. Humidity Pressure Rain* Wind** Luminosity Snow
1787833920 18.33° C 96% 1023.2 hPa 0 mm - 38 W/m² -
1787833620 18.33° C 96% 1023.2 hPa 0 mm - 38 W/m² -
1787833320 18.89° C 95% 1023.3 hPa 0 mm - 20 W/m² -
1787833020 18.89° C 95% 1022.8 hPa 0 mm - 22 W/m² -
1787832720 18.89° C 95% 1022.8 hPa 0 mm - 22 W/m² -
1787832420 18.89° C 96% 1023.2 hPa 0 mm - 30 W/m² -
1787832120 18.89° C 96% 1023 hPa 0 mm - 32 W/m² -
1787831820 18.33° C 96% 1023 hPa 0 mm - 20 W/m² -
1787831520 18.33° C 96% 1022.6 hPa 0 mm - 17 W/m² -
1787831220 18.33° C 96% 1022.9 hPa 0 mm - 10 W/m² -
1787830919 18.89° C 96% 1022.6 hPa 0 mm - 14 W/m² -
1787830620 18.89° C 96% 1022.6 hPa 0 mm - 14 W/m² -
1787830320 18.89° C 97% 1022.6 hPa 0 mm - 12 W/m² -
1787830020 18.89° C 97% 1022.6 hPa 0 mm - 7 W/m² -
1787829720 18.89° C 98% 1022.5 hPa 0 mm - 7 W/m² -
1787829420 18.89° C 97% 1022.2 hPa 0 mm - 2 W/m² -
1787829119 18.89° C 97% 1022.3 hPa 0 mm - 2 W/m² -
1787828820 18.89° C 96% 1021.8 hPa 0 mm - 1 W/m² -
1787828520 18.89° C 97% 1021.9 hPa 0 mm - 0 W/m² -
1787828219 18.89° C 97% 1022.1 hPa 0 mm - 0 W/m² -
1787827920 18.89° C 97% 1022.1 hPa 0 mm - 0 W/m² -
1787827620 18.89° C 97% 1022 hPa 0 mm - 0 W/m² -
1787827320 18.89° C 97% 1021.8 hPa 0 mm - 0 W/m² -
1787827020 18.89° C 97% 1022.2 hPa 0 mm - 0 W/m² -
1787826720 18.89° C 97% 1021.9 hPa 0 mm - 0 W/m² -

* Rain latest hour (hover to see other rain measurements)
** Current wind speed in m/s (hover to see current wind gust speed)